Home > Weather > Lynchburg > Past weeks

Flag for USA Past Weather in Lynchburg, Virginia, USA — Yesterday and Last 2 Weeks

Now
91 °F

Sunny.


Feels Like: 102 °F
Forecast: 70 / 95 °F
Wind: 5 mph from North

Location: Lynchburg Regional Airport

Current Time: Jul 25, 2016 at 6:07:38 PM

Latest Report: Jul 25, 2016 at 4:54 PM


Visibility: 10 mi

Pressure: 29.93 "Hg

Humidity: 60%

Dew Point: 75 °F

Location of LynchburgLocation

Past Weather in Lynchburg — Graph

°F

Lynchburg Temperature Yesterday

Maximum temperature yesterday: 94 °F (at 3:54 PM)
Minimum temperature yesterday: 70 °F (at 4:54 AM)
Average temperature yesterday: 82 °F

High & Low Weather Summary for the Past Weeks

 TemperatureHumidityPressure
High94 °F (Jul 24, 3:54 PM)100% (Jul 11, 5:54 AM)30.22 "Hg (Jul 11, 5:54 AM)
Low62 °F (Jul 11, 5:54 AM)38% (Jul 17, 3:54 PM)29.93 "Hg (Jul 23, 6:54 PM)
Average77 °F77%30.07 "Hg
* Reported Jul 10 4:54 PM — Jul 25 4:54 PM, Lynchburg, Weather by CustomWeather, © 2016

Note: Actual official high and low records may vary slightly from our data, if they occured in-between our weather recording intervals... More about our weather records

Advertising

Lynchburg Weather History for the Previous 24 Hours

Scroll right to see more
 ConditionsComfort  
Time TempWeatherWind HumidityBarometerVisibility
4:54 PM
Mon, Jul 25
91 °FSunny.5 mph60%29.93 "Hg10 mi
3:54 PM92 °FSunny.6 mph52%29.94 "Hg10 mi
2:54 PM93 °FPassing clouds.7 mph47%29.96 "Hg10 mi
1:54 PM92 °FSunny.5 mph51%29.98 "Hg10 mi
12:54 PM89 °FSunny.5 mph57%30.01 "Hg10 mi
11:54 AM88 °FSunny.7 mph59%30.01 "Hg10 mi
10:54 AM86 °FSunny.5 mph65%30.01 "Hg10 mi
9:54 AM82 °FSunny.6 mph72%30.02 "Hg10 mi
8:54 AM79 °FSunny.7 mph79%30.02 "Hg10 mi
7:54 AM75 °FSunny.5 mph94%30.02 "Hg10 mi
6:54 AM71 °FClear.3 mph100%30.03 "Hg10 mi
5:54 AM71 °FClear.No wind96%30.01 "Hg10 mi
4:54 AM71 °FClear.No wind96%30.01 "Hg10 mi
3:54 AM72 °FClear.No wind97%30.01 "Hg10 mi
2:54 AM72 °FClear.No wind97%30.00 "Hg10 mi
1:54 AM74 °FClear.No wind94%30.00 "Hg10 mi
12:54 AM75 °FClear.No wind90%30.01 "Hg10 mi
11:54 PM
Sun, Jul 24
78 °FClear.5 mph84%30.01 "Hg10 mi
10:54 PM77 °FClear.No wind88%30.02 "Hg10 mi
9:54 PM79 °FClear.3 mph82%30.01 "Hg10 mi
8:54 PM80 °FSunny.3 mph79%30.00 "Hg10 mi
7:54 PM86 °FSunny.7 mph65%29.99 "Hg10 mi
6:54 PM91 °FSunny.8 mph54%29.97 "Hg10 mi
Weather by CustomWeather, © 2016

See weather overviewHow to use our weather pages